Capo Carbonara,

12:51 AM CET on January 20, 2018 (GMT +0100)
Capo Carbonara

Weather History for LIEC - October, 2013

Change the Weather History Date:

Wednesday, October 16, 2013

  Actual Average Record
Temperature  
Mean Temperature 74 °F -  
Max Temperature 78 °F 68 °F - ()
Min Temperature 69 °F 59 °F - ()
Cooling Degree Days 8    
Growing Degree Days 24 (Base 50)    
Moisture  
Dew Point 63 °F    
Average Humidity 70    
Maximum Humidity 83    
Minimum Humidity 43    
Precipitation  
Precipitation 0.00 in 0.04 in - ()
Sea Level Pressure  
Sea Level Pressure 29.89 in    
Wind  
Wind Speed 20 mph ()    
Max Wind Speed 43 mph    
Max Gust Speed 59 mph    
Visibility 7.0 miles    
Events      
T = Trace of Precipitation, MM = Missing Value Source: Averaged Metar Reports

Daily Weather History Graph

Daily Weather History Graph

Search for Another Location

Airport or City:

Trip Planner

Search our weather history database for the weather conditions in past years. The results will help you decide how hot, cold, wet, or windy it might be!

Date:

Astronomy

Oct. 16, 2013 Rise Set
Actual Time 7:32 AM CEST 6:41 PM CEST
Civil Twilight 7:05 AM CEST 7:08 PM CEST
Nautical Twilight 6:34 AM CEST 7:39 PM CEST
Astronomical Twilight 6:03 AM CEST 8:10 PM CEST
Moon 5:11 PM CEST (10/16) 4:43 AM CEST (10/16)
Length of Visible Light 12h 03m
Length of Day
11h 09m
Waxing Gibbous, 92% of the Moon is Illuminated
Oct 16
Waxing Gibbous
Oct 19
Full
Oct 27
Last Quarter
Nov 3
New
Nov 10
First Quarter

Hourly Weather History & Observations

Time (CEST) Temp. Dew Point Humidity Pressure Visibility Wind Dir Wind Speed Gust Speed Precip Events Conditions
12:55 AM 71.6 °F 64.4 °F 78% 29.98 in 6.2 mi WSW 12.7 mph - N/A   Scattered Clouds
1:55 AM 71.6 °F 64.4 °F 78% 29.98 in 6.2 mi West 15.0 mph - N/A   Partly Cloudy
2:00 AM 71 °F 64 °F 73% 29.97 in 12 mi West 15.0 mph - -   Scattered Clouds
2:55 AM 71.6 °F 64.4 °F 78% 29.95 in 6.2 mi WSW 17.3 mph - N/A   Partly Cloudy
3:55 AM 71.6 °F 64.4 °F 78% 29.92 in 6.2 mi WSW 18.4 mph - N/A   Partly Cloudy
4:55 AM 71.6 °F 64.4 °F 78% 29.92 in 6.2 mi WSW 20.7 mph - N/A   Partly Cloudy
5:00 AM 71 °F 65 °F 75% 29.91 in 12 mi WSW 20.7 mph - -   Scattered Clouds
6:55 AM 69.8 °F 62.6 °F 78% 29.92 in 6.2 mi West 17.3 mph - N/A   Partly Cloudy
7:55 AM 69.8 °F 62.6 °F 78% 29.92 in 6.2 mi West 18.4 mph - N/A   Partly Cloudy
8:00 AM 70 °F 63 °F 71% 29.91 in 6 mi West 18.4 mph - -   Scattered Clouds
8:55 AM 69.8 °F 64.4 °F 83% 29.89 in 6.2 mi West 20.7 mph - N/A   Partly Cloudy
9:55 AM 71.6 °F 64.4 °F 78% 29.92 in 6.2 mi West 33.4 mph - N/A   Partly Cloudy
10:55 AM 73.4 °F 60.8 °F 65% 29.89 in 6.2 mi West 33.4 mph 46.0 mph N/A   Partly Cloudy
11:00 AM 73 °F 62 °F 59% 29.88 in 6 mi West 33.4 mph - -   Scattered Clouds
11:55 AM 73.4 °F 60.8 °F 65% 29.86 in 6.2 mi West 36.8 mph - N/A   Partly Cloudy
12:55 PM 75.2 °F 60.8 °F 61% 29.86 in 6.2 mi West 36.8 mph - N/A   Partly Cloudy
1:55 PM 77.0 °F 62.6 °F 61% 29.80 in 6.2 mi West 42.6 mph 58.7 mph N/A   Partly Cloudy
2:00 PM 76 °F 62 °F 52% 29.80 in 6 mi West 42.6 mph - -   Scattered Clouds
2:55 PM 78.8 °F 60.8 °F 54% 29.80 in 6.2 mi West 34.5 mph 48.3 mph N/A   Partly Cloudy
3:55 PM 78.8 °F 60.8 °F 54% 29.83 in 6.2 mi West 26.5 mph - N/A   Partly Cloudy
4:55 PM 78.8 °F 59.0 °F 51% 29.83 in 6.2 mi WNW 26.5 mph - N/A   Partly Cloudy
5:00 PM 78 °F 60 °F 43% 29.83 in 12 mi WNW 26.5 mph - -   Scattered Clouds
5:55 PM 75.2 °F 62.6 °F 65% 29.83 in 6.2 mi West 28.8 mph 43.7 mph N/A   Partly Cloudy
6:55 PM 73.4 °F 64.4 °F 73% 29.86 in 6.2 mi WNW 27.6 mph - N/A   Partly Cloudy
7:55 PM 73.4 °F 64.4 °F 73% 29.89 in - WNW 16.1 mph - N/A   Clear
8:55 PM 73.4 °F 64.4 °F 73% 29.92 in 6.2 mi NW 13.8 mph - N/A   Partly Cloudy
9:55 PM 71.6 °F 66.2 °F 83% 29.92 in 6.2 mi West 20.7 mph - N/A   Partly Cloudy
10:55 PM 69.8 °F 64.4 °F 83% 29.92 in 6.2 mi West 15.0 mph - N/A   Partly Cloudy
11:00 PM 71 °F 64 °F 73% 29.94 in 12 mi West 15.0 mph - -   Scattered Clouds
11:55 PM 71.6 °F 62.6 °F 73% 29.95 in 6.2 mi West 6.9 mph - N/A   Partly Cloudy